Weather in Olgeti

Russia / Republic of Ingushetia     42°48′06″N   44°45′15″E
temp.,
°C
wind,
m/s
gust,
m/s
humid.,
%
clouds,
%
prec.,
mm/h
press.,
hPa
HPBL,
m
18 april, sun
sun1800:00+3s5793100 0.4 1020266
03:00+3s5790100 0.4 1019208
06:00+3s5790100 0.0 1018228
09:00+5ssw568463 0.4 1018538
12:00+7s467968 0.0 1017688
15:00+7sw2482100 0.3 1017558
18:00+5sw1394100 0.8 1018168
21:00+3s4588100 1.0 101989
19 april, mon
mon1900:00+3ssw3488100 0.0 101960
03:00+2ssw3486100 0.0 101958
06:00+2s458428 0.0 101975
09:00+7ssw337294 0.0 1017780
12:00+7s348290 0.3 1017682
15:00+7s347849 0.4 1016658
18:00+6ssw568349 0.0 1017334
21:00+4ssw458580 0.0 1018113
20 april, tue
tue2000:00+4s6887100 0.0 1016187
03:00+4s788599 0.0 1016165
06:00+5s7879100 0.0 1015146
09:00+12s565836 0.0 1012620
12:00+13s7754100 0.0 10111133
15:00+12ssw6860100 0.2 1010966
18:00+9s4680100 0.4 1010247
21:00+5s6888100 8.4 1014183
21 april, wed
wed2100:00+6s5685100 0.9 1014151
03:00+4s459334 1.1 1015106
06:00+4ssw249592 0.1 1016134
09:00+7s157636 0.4 1015647
12:00+8ssw277047 0.9 10141460
15:00+7nw147443 1.6 1015868
18:00+4n138747 0.8 1017277
21:00+3s139871 2.3 1019133
22 april, thu
thu2200:00+4s249799 1.3 1018306
03:00+3s359793 3.1 1018338
06:00+2ssw359682 0.3 1019263
09:00+5s358551 0.6 1018577
12:00+6ssw247228 0.4 1018904
15:00+6nw047563 1.4 1019563
18:00+3nne1294100 1.1 1021261
21:00+2nnw1299100 3.0 1021272